| time (UTC) | temp C | wind direction | speed KPH | gust KPH | rain 1hr cm | rain 24hr cm | rain mn cm | humidity % | barometer mb |
| 20260906051601 | 23 | 92 | 0.0 | 0.0 | 0.00 | 0.00 | 0.00 | 100 | 1014.2 |
| 20260906050105 | 23 | 92 | 0.0 | 0.0 | 0.00 | 0.00 | 0.00 | 100 | 1014.5 |
| 20260906044553 | 23 | 92 | 0.0 | 0.0 | 0.00 | 0.00 | 0.00 | 100 | 1014.6 |
| 20260906043047 | 24 | 92 | 0.0 | 0.0 | 0.00 | 0.00 | 0.00 | 100 | 1014.6 |
| 20260906041543 | 24 | 92 | 0.0 | 1.6 | 0.00 | 0.00 | 0.00 | 100 | 1014.7 |
| 20260906040046 | 25 | 92 | 0.0 | 1.6 | 0.00 | 0.00 | 0.00 | 100 | 1014.7 |
| 20260906034546 | 25 | 92 | 0.0 | 8.0 | 0.00 | 0.00 | 0.00 | 100 | 1014.6 |
| 20260906033031 | 25 | 76 | 0.0 | 8.0 | 0.00 | 0.00 | 0.00 | 100 | 1014.7 |
| 20260906031556 | 25 | 17 | 0.0 | 0.0 | 0.00 | 0.00 | 0.00 | 100 | 1014.6 |
| 20260906030022 | 25 | 18 | 0.0 | 0.0 | 0.00 | 0.00 | 0.00 | 100 | 1014.4 |
| 20260906024538 | 25 | 18 | 0.0 | 1.6 | 0.00 | 0.00 | 0.00 | 100 | 1014.1 |
| 20260906023013 | 25 | 18 | 0.0 | 0.0 | 0.00 | 0.00 | 0.00 | 100 | 1013.9 |
| 20260906021509 | 25 | 17 | 0.0 | 0.0 | 0.00 | 0.00 | 0.00 | 100 | 1013.8 |
| 20260906020004 | 25 | 17 | 0.0 | 0.0 | 0.00 | 0.00 | 0.00 | 100 | 1013.4 |
| 20260906014600 | 26 | 18 | 0.0 | 0.0 | 0.00 | 0.00 | 0.00 | 100 | 1013.3 |
| 20260906013103 | 26 | 17 | 0.0 | 0.0 | 0.00 | 0.00 | 0.00 | 100 | 1013.3 |
| 20260906011551 | 26 | 17 | 0.0 | 0.0 | 0.00 | 0.00 | 0.00 | 100 | 1013.2 |
| 20260906010051 | 27 | 17 | 0.0 | 0.0 | 0.00 | 0.00 | 0.00 | 14 | 1013.0 |
| 20260906004544 | 27 | 17 | 0.0 | 0.0 | 0.00 | 0.00 | 0.00 | 32 | 1012.8 |
| 20260906003038 | 29 | 17 | 0.0 | 0.0 | 0.00 | 0.00 | 0.00 | 52 | 1012.7 |
| 20260906001536 | 31 | 17 | 0.0 | 0.0 | 0.00 | 0.00 | 0.00 | 64 | 1012.6 |
| 20260906000029 | 32 | 18 | 0.0 | 0.0 | 0.00 | 0.00 | 0.00 | 65 | 1012.8 |
| 20260905234525 | 33 | 18 | 0.0 | 0.0 | 0.00 | 0.00 | 0.00 | 64 | 1012.9 |
| 20260905233021 | 33 | 18 | 0.0 | 1.6 | 0.00 | 0.00 | 0.00 | 61 | 1012.9 |
| 20260905231516 | 34 | 18 | 0.0 | 3.2 | 0.00 | 0.00 | 0.00 | 55 | 1012.7 |
| 20260905230026 | 34 | 15 | 1.6 | 8.0 | 0.00 | 0.00 | 0.00 | 55 | 1012.8 |
| 20260905224516 | 35 | 31 | 3.2 | 8.0 | 0.00 | 0.00 | 0.00 | 54 | 1012.6 |
| 20260905223003 | 35 | 63 | 4.8 | 9.7 | 0.00 | 0.00 | 0.00 | 54 | 1012.8 |
| 20260905221558 | 35 | 64 | 1.6 | 3.2 | 0.00 | 0.00 | 0.00 | 53 | 1012.9 |
| 20260905220054 | 35 | 35 | 3.2 | 8.0 | 0.00 | 0.00 | 0.00 | 52 | 1012.9 |
| 20260905214552 | 35 | 95 | 4.8 | 11.3 | 0.00 | 0.00 | 0.00 | 52 | 1012.9 |
| 20260905213048 | 35 | 109 | 4.8 | 11.3 | 0.00 | 0.00 | 0.00 | 53 | 1013.0 |
| 20260905211559 | 34 | 24 | 3.2 | 11.3 | 0.00 | 0.00 | 0.00 | 54 | 1013.1 |
| 20260905210050 | 34 | 47 | 0.0 | 4.8 | 0.00 | 0.00 | 0.00 | 57 | 1013.1 |
| 20260905204536 | 35 | 36 | 4.8 | 8.0 | 0.00 | 0.00 | 0.00 | 55 | 1013.3 |
| 20260905203028 | 35 | 330 | 0.0 | 6.4 | 0.00 | 0.00 | 0.00 | 56 | 1013.4 |
| 20260905201532 | 34 | 99 | 1.6 | 9.7 | 0.00 | 0.00 | 0.00 | 58 | 1013.7 |
| 20260905200019 | 35 | 50 | 4.8 | 11.3 | 0.00 | 0.00 | 0.00 | 57 | 1013.9 |
| 20260905194515 | 35 | 63 | 0.0 | 8.0 | 0.00 | 0.00 | 0.00 | 57 | 1014.2 |
| 20260905193010 | 34 | 82 | 6.4 | 11.3 | 0.00 | 0.00 | 0.00 | 56 | 1014.5 |
| 20260905191507 | 33 | 65 | 1.6 | 11.3 | 0.00 | 0.00 | 0.00 | 59 | 1014.7 |
| 20260905190003 | 34 | 285 | 3.2 | 12.9 | 0.00 | 0.00 | 0.00 | 57 | 1014.9 |
| 20260905184558 | 33 | 76 | 6.4 | 12.9 | 0.00 | 0.00 | 0.00 | 60 | 1015.1 |
| 20260905183056 | 33 | 150 | 1.6 | 11.3 | 0.00 | 0.00 | 0.00 | 59 | 1015.3 |
| 20260905181548 | 33 | 319 | 1.6 | 16.1 | 0.00 | 0.00 | 0.00 | 60 | 1015.3 |
| 20260905180052 | 34 | 39 | 4.8 | 12.9 | 0.00 | 0.00 | 0.00 | 58 | 1015.5 |
| 20260905174543 | 33 | 279 | 4.8 | 9.7 | 0.00 | 0.00 | 0.00 | 59 | 1015.6 |
| 20260905173053 | 33 | 60 | 4.8 | 11.3 | 0.00 | 0.00 | 0.00 | 59 | 1015.7 |
| 20260905171532 | 33 | 111 | 8.0 | 14.5 | 0.00 | 0.00 | 0.00 | 61 | 1015.8 |
| 20260905170027 | 33 | 52 | 3.2 | 11.3 | 0.00 | 0.00 | 0.00 | 62 | 1016.0 |
| 20260905164523 | 33 | 301 | 4.8 | 11.3 | 0.00 | 0.00 | 0.00 | 61 | 1016.3 |
| 20260905163018 | 32 | 293 | 6.4 | 11.3 | 0.00 | 0.00 | 0.00 | 63 | 1016.4 |
| 20260905161514 | 32 | 292 | 3.2 | 8.0 | 0.00 | 0.00 | 0.00 | 64 | 1016.7 |
| 20260905160010 | 31 | 322 | 6.4 | 9.7 | 0.00 | 0.00 | 0.00 | 64 | 1016.9 |
| 20260905154505 | 31 | 17 | 4.8 | 9.7 | 0.00 | 0.00 | 0.00 | 63 | 1017.0 |
| 20260905153101 | 31 | 321 | 1.6 | 12.9 | 0.00 | 0.00 | 0.00 | 61 | 1017.1 |
| 20260905151559 | 30 | 344 | 6.4 | 8.0 | 0.00 | 0.00 | 0.00 | 61 | 1017.1 |
| 20260905150052 | 30 | 300 | 4.8 | 8.0 | 0.00 | 0.00 | 0.00 | 54 | 1017.3 |
| 20260905144548 | 29 | 11 | 0.0 | 4.8 | 0.00 | 0.00 | 0.00 | 47 | 1017.3 |
| 20260905143048 | 28 | 74 | 0.0 | 4.8 | 0.00 | 0.00 | 0.00 | 32 | 1017.4 |
| 20260905141539 | 28 | 94 | 0.0 | 3.2 | 0.00 | 0.00 | 0.00 | 17 | 1017.4 |
| 20260905140035 | 27 | 92 | 0.0 | 4.8 | 0.00 | 0.00 | 0.00 | 100 | 1017.6 |
| 20260905134535 | 26 | 96 | 0.0 | 3.2 | 0.00 | 0.00 | 0.00 | 100 | 1017.6 |
| 20260905133025 | 25 | 96 | 0.0 | 0.0 | 0.00 | 0.00 | 0.00 | 100 | 1017.5 |
| 20260905131526 | 23 | 96 | 0.0 | 0.0 | 0.00 | 0.00 | 0.00 | 100 | 1017.4 |
| 20260905130018 | 23 | 94 | 0.0 | 0.0 | 0.00 | 0.00 | 0.00 | 100 | 1017.6 |
| 20260905124517 | 22 | 94 | 0.0 | 0.0 | 0.00 | 0.00 | 0.00 | 100 | 1017.5 |
| 20260905123009 | 21 | 94 | 0.0 | 0.0 | 0.00 | 0.00 | 0.00 | 100 | 1017.5 |
| 20260905121504 | 21 | 94 | 0.0 | 0.0 | 0.00 | 0.00 | 0.00 | 100 | 1017.4 |
| 20260905120100 | 20 | 95 | 0.0 | 0.0 | 0.00 | 0.00 | 0.00 | 100 | 1017.4 |
| 20260905114556 | 20 | 94 | 0.0 | 0.0 | 0.00 | 0.00 | 0.00 | 100 | 1017.2 |
| 20260905113052 | 20 | 94 | 0.0 | 0.0 | 0.00 | 0.00 | 0.00 | 100 | 1016.8 |
| 20260905111547 | 20 | 94 | 0.0 | 0.0 | 0.00 | 0.00 | 0.00 | 100 | 1016.7 |
| 20260905110055 | 20 | 94 | 0.0 | 0.0 | 0.00 | 0.00 | 0.00 | 100 | 1016.6 |
| 20260905104538 | 20 | 94 | 0.0 | 0.0 | 0.00 | 0.00 | 0.00 | 100 | 1016.5 |
| 20260905103034 | 20 | 94 | 0.0 | 0.0 | 0.00 | 0.00 | 0.00 | 100 | 1016.5 |
| 20260905101529 | 20 | 94 | 0.0 | 0.0 | 0.00 | 0.00 | 0.00 | 100 | 1016.3 |
| 20260905100025 | 20 | 94 | 0.0 | 0.0 | 0.00 | 0.00 | 0.00 | 100 | 1016.1 |
| 20260905094522 | 20 | 94 | 0.0 | 0.0 | 0.00 | 0.00 | 0.00 | 100 | 1016.0 |
| 20260905093016 | 20 | 94 | 0.0 | 0.0 | 0.00 | 0.00 | 0.00 | 100 | 1016.1 |
| 20260905091515 | 20 | 94 | 0.0 | 0.0 | 0.00 | 0.00 | 0.00 | 100 | 1015.8 |
| 20260905090011 | 20 | 94 | 0.0 | 0.0 | 0.00 | 0.00 | 0.00 | 100 | 1015.8 |
| 20260905084502 | 20 | 94 | 0.0 | 0.0 | 0.00 | 0.00 | 0.00 | 100 | 1015.8 |
| 20260905083103 | 21 | 94 | 0.0 | 0.0 | 0.00 | 0.00 | 0.00 | 100 | 1015.6 |
| 20260905081554 | 21 | 94 | 0.0 | 0.0 | 0.00 | 0.00 | 0.00 | 100 | 1015.7 |
| 20260905080057 | 21 | 94 | 0.0 | 0.0 | 0.00 | 0.00 | 0.00 | 100 | 1015.7 |
| 20260905074546 | 21 | 94 | 0.0 | 0.0 | 0.00 | 0.00 | 0.00 | 100 | 1015.8 |
| 20260905073041 | 21 | 94 | 0.0 | 0.0 | 0.00 | 0.00 | 0.00 | 100 | 1015.8 |
| 20260905071537 | 21 | 94 | 0.0 | 0.0 | 0.00 | 0.00 | 0.00 | 100 | 1015.8 |
| 20260905070035 | 21 | 94 | 0.0 | 0.0 | 0.00 | 0.00 | 0.00 | 100 | 1015.9 |
| 20260905064529 | 21 | 94 | 0.0 | 0.0 | 0.00 | 0.00 | 0.00 | 100 | 1016.1 |
| 20260905063024 | 21 | 94 | 0.0 | 0.0 | 0.00 | 0.00 | 0.00 | 100 | 1016.3 |
| 20260905061520 | 21 | 94 | 0.0 | 1.6 | 0.00 | 0.00 | 0.00 | 100 | 1016.3 |
| 20260905060015 | 21 | 94 | 1.6 | 3.2 | 0.00 | 0.00 | 0.00 | 100 | 1016.3 |
| 20260905054511 | 21 | 94 | 0.0 | 0.0 | 0.00 | 0.00 | 0.00 | 100 | 1016.5 |
| 20260905053008 | 21 | 94 | 0.0 | 0.0 | 0.00 | 0.00 | 0.00 | 100 | 1016.5 |